When you browse on this site, cookies collect data to enhance your experience and personalize the content and advertising you see.
Visit our Privacy Policy to learn more. By continuing to use the site, you agree to this use of cookies and data.
  • en Suisse
  • Liste des pays
  • À 7 jours
  • Température de l'eau
  • Carte satellitaire
  • Carte météo
  • Widgets météo
  • user-avatar
    Se connecter

    Météo par heure à Guangzhou

    Ce jour, 17 Juin, Lundi

    Heure Température Précipitation Vent Pression Humidité
    00:00 +31°C° 0 mm 3 m/s 755 mmHg 62%
    01:00 +30°C° 0 mm 3 m/s 754 mmHg 65%
    02:00 +30°C° 0 mm 3 m/s 754 mmHg 67%
    03:00 +30°C° 0 mm 3 m/s 754 mmHg 68%
    04:00 +30°C° 0 mm 3 m/s 754 mmHg 70%
    05:00 +29°C° 0 mm 3 m/s 754 mmHg 71%
    06:00 +30°C° 0 mm 3 m/s 754 mmHg 69%
    07:00 +30°C° 0 mm 3 m/s 755 mmHg 67%
    08:00 +31°C° 0 mm 3 m/s 755 mmHg 66%
    09:00 +31°C° 0 mm 3 m/s 755 mmHg 64%
    10:00 +33°C° 0 mm 3 m/s 755 mmHg 61%
    11:00 +34°C° 0 mm 3 m/s 755 mmHg 59%
    12:00 +35°C° 0 mm 3 m/s 755 mmHg 57%
    13:00 +36°C° 0 mm 4 m/s 754 mmHg 54%
    14:00 +37°C° 0 mm 4 m/s 754 mmHg 51%
    15:00 +37°C° 0.1 mm 4 m/s 753 mmHg 51%
    16:00 +37°C° 0.1 mm 4 m/s 753 mmHg 51%
    17:00 +37°C° 0.1 mm 4 m/s 753 mmHg 51%
    18:00 +36°C° 0.2 mm 4 m/s 753 mmHg 54%
    19:00 +35°C° 0.2 mm 4 m/s 754 mmHg 57%
    20:00 +34°C° 0.2 mm 4 m/s 754 mmHg 61%
    21:00 +34°C° 0.1 mm 4 m/s 755 mmHg 63%
    22:00 +33°C° 0.1 mm 4 m/s 755 mmHg 65%
    23:00 +33°C° 0.1 mm 4 m/s 755 mmHg 68%

    Demain, 18 Juin, Mardi

    Heure Température Précipitation Vent Pression Humidité
    00:00 +32°C° 0.7 mm 4 m/s 755 mmHg 70%
    01:00 +32°C° 0.7 mm 4 m/s 755 mmHg 72%
    02:00 +31°C° 0.7 mm 3 m/s 755 mmHg 74%
    03:00 +31°C° 1.1 mm 3 m/s 755 mmHg 74%
    04:00 +30°C° 1.1 mm 3 m/s 755 mmHg 75%
    05:00 +30°C° 1.1 mm 3 m/s 755 mmHg 76%
    06:00 +31°C° 0.5 mm 3 m/s 755 mmHg 73%
    07:00 +31°C° 0.5 mm 3 m/s 755 mmHg 71%
    08:00 +33°C° 0.5 mm 3 m/s 755 mmHg 68%
    09:00 +34°C° 0.2 mm 4 m/s 755 mmHg 63%
    10:00 +35°C° 0.2 mm 4 m/s 755 mmHg 58%
    11:00 +36°C° 0.2 mm 4 m/s 755 mmHg 53%
    12:00 +37°C° 0.3 mm 5 m/s 755 mmHg 52%
    13:00 +37°C° 0.3 mm 5 m/s 754 mmHg 51%
    14:00 +38°C° 0.3 mm 6 m/s 753 mmHg 50%
    15:00 +38°C° 0.1 mm 6 m/s 753 mmHg 51%
    16:00 +38°C° 0.1 mm 6 m/s 753 mmHg 51%
    17:00 +37°C° 0.1 mm 5 m/s 753 mmHg 51%
    18:00 +36°C° 0 mm 5 m/s 753 mmHg 54%
    19:00 +35°C° 0 mm 5 m/s 754 mmHg 57%
    20:00 +34°C° 0 mm 5 m/s 754 mmHg 60%
    21:00 +34°C° 0 mm 4 m/s 754 mmHg 62%
    22:00 +34°C° 0 mm 4 m/s 755 mmHg 64%
    23:00 +33°C° 0 mm 4 m/s 755 mmHg 66%

    Après-demain, 19 Juin, Mercredi

    Heure Température Précipitation Vent Pression Humidité
    00:00 +33°C° 0.1 mm 4 m/s 755 mmHg 68%
    01:00 +33°C° 0.1 mm 4 m/s 754 mmHg 69%
    02:00 +33°C° 0.1 mm 3 m/s 754 mmHg 71%
    03:00 +31°C° 0.2 mm 3 m/s 754 mmHg 71%
    04:00 +31°C° 0.2 mm 3 m/s 754 mmHg 72%
    05:00 +31°C° 0.2 mm 3 m/s 754 mmHg 73%
    06:00 +33°C° 0.3 mm 3 m/s 754 mmHg 70%
    07:00 +33°C° 0.3 mm 3 m/s 755 mmHg 67%
    08:00 +34°C° 0.3 mm 3 m/s 755 mmHg 65%
    09:00 +35°C° 0 mm 3 m/s 755 mmHg 59%
    10:00 +36°C° 0 mm 3 m/s 755 mmHg 54%
    11:00 +38°C° 0 mm 4 m/s 755 mmHg 49%
    12:00 +38°C° 0 mm 4 m/s 754 mmHg 48%
    13:00 +39°C° 0 mm 5 m/s 753 mmHg 48%
    14:00 +40°C° 0 mm 5 m/s 753 mmHg 47%
    15:00 +40°C° 0 mm 5 m/s 752 mmHg 47%
    16:00 +39°C° 0 mm 5 m/s 752 mmHg 48%
    17:00 +39°C° 0 mm 5 m/s 752 mmHg 48%
    18:00 +37°C° 0 mm 5 m/s 752 mmHg 52%
    19:00 +36°C° 0 mm 5 m/s 752 mmHg 55%
    20:00 +35°C° 0 mm 5 m/s 753 mmHg 58%
    21:00 +35°C° 0 mm 4 m/s 753 mmHg 61%
    22:00 +34°C° 0 mm 4 m/s 753 mmHg 63%
    23:00 +34°C° 0 mm 4 m/s 754 mmHg 66%

    20 Juin, Jeudi

    Heure Température Précipitation Vent Pression Humidité
    00:00 +34°C° 0 mm 3 m/s 754 mmHg 68%
    01:00 +33°C° 0 mm 3 m/s 753 mmHg 70%
    02:00 +33°C° 0 mm 3 m/s 753 mmHg 72%
    03:00 +32°C° 0.1 mm 2 m/s 753 mmHg 72%
    04:00 +32°C° 0.1 mm 2 m/s 753 mmHg 72%
    05:00 +32°C° 0.1 mm 2 m/s 753 mmHg 72%
    06:00 +32°C° 0.1 mm 2 m/s 753 mmHg 69%
    07:00 +34°C° 0.1 mm 2 m/s 754 mmHg 67%
    08:00 +34°C° 0.1 mm 3 m/s 754 mmHg 64%
    09:00 +36°C° 0 mm 3 m/s 754 mmHg 60%
    10:00 +37°C° 0 mm 4 m/s 754 mmHg 55%
    11:00 +39°C° 0 mm 5 m/s 754 mmHg 51%
    12:00 +39°C° 0.1 mm 5 m/s 753 mmHg 50%
    13:00 +40°C° 0.1 mm 5 m/s 753 mmHg 48%
    14:00 +40°C° 0.1 mm 5 m/s 752 mmHg 47%
    15:00 +40°C° 0 mm 5 m/s 752 mmHg 47%
    16:00 +40°C° 0 mm 5 m/s 751 mmHg 48%
    17:00 +40°C° 0 mm 6 m/s 751 mmHg 48%
    18:00 +39°C° 0 mm 5 m/s 751 mmHg 52%
    19:00 +37°C° 0 mm 5 m/s 752 mmHg 55%
    20:00 +36°C° 0 mm 5 m/s 752 mmHg 58%
    21:00 +35°C° 0 mm 5 m/s 752 mmHg 60%
    22:00 +35°C° 0 mm 5 m/s 752 mmHg 63%
    23:00 +34°C° 0 mm 4 m/s 753 mmHg 65%

    21 Juin, Vendredi

    Heure Température Précipitation Vent Pression Humidité
    00:00 +34°C° 0 mm 4 m/s 752 mmHg 67%
    01:00 +34°C° 0 mm 4 m/s 752 mmHg 69%
    02:00 +33°C° 0 mm 4 m/s 752 mmHg 70%
    03:00 +33°C° 0 mm 4 m/s 752 mmHg 71%
    04:00 +33°C° 0 mm 4 m/s 752 mmHg 71%
    05:00 +33°C° 0 mm 3 m/s 752 mmHg 71%
    06:00 +33°C° 0 mm 4 m/s 752 mmHg 69%
    07:00 +34°C° 0 mm 4 m/s 752 mmHg 67%
    08:00 +34°C° 0 mm 4 m/s 752 mmHg 65%
    09:00 +35°C° 0.1 mm 4 m/s 753 mmHg 60%
    10:00 +37°C° 0.1 mm 5 m/s 753 mmHg 56%
    11:00 +39°C° 0.1 mm 5 m/s 753 mmHg 52%
    12:00 +39°C° 0.2 mm 5 m/s 752 mmHg 51%
    13:00 +40°C° 0.2 mm 5 m/s 751 mmHg 49%
    14:00 +41°C° 0.2 mm 5 m/s 751 mmHg 48%
    15:00 +40°C° 0.1 mm 5 m/s 750 mmHg 50%
    16:00 +40°C° 0.1 mm 5 m/s 750 mmHg 52%
    17:00 +39°C° 0.1 mm 5 m/s 750 mmHg 54%
    18:00 +37°C° 0 mm 5 m/s 750 mmHg 57%
    19:00 +36°C° 0 mm 5 m/s 750 mmHg 61%
    20:00 +35°C° 0 mm 6 m/s 751 mmHg 64%
    21:00 +35°C° 0 mm 5 m/s 751 mmHg 66%
    22:00 +34°C° 0 mm 5 m/s 751 mmHg 67%
    23:00 +34°C° 0 mm 4 m/s 752 mmHg 68%

    22 Juin, Samedi

    Heure Température Précipitation Vent Pression Humidité
    00:00 +33°C° 0 mm 4 m/s 752 mmHg 70%
    01:00 +33°C° 0 mm 4 m/s 751 mmHg 71%
    02:00 +33°C° 0 mm 4 m/s 751 mmHg 72%
    03:00 +33°C° 0 mm 4 m/s 751 mmHg 73%
    04:00 +33°C° 0 mm 4 m/s 751 mmHg 73%
    05:00 +32°C° 0 mm 4 m/s 751 mmHg 74%
    06:00 +33°C° 0 mm 4 m/s 751 mmHg 71%
    07:00 +33°C° 0 mm 4 m/s 751 mmHg 69%
    08:00 +34°C° 0 mm 3 m/s 752 mmHg 67%
    09:00 +35°C° 0 mm 4 m/s 752 mmHg 62%
    10:00 +36°C° 0 mm 4 m/s 752 mmHg 57%
    11:00 +38°C° 0 mm 4 m/s 752 mmHg 52%
    12:00 +38°C° 0 mm 4 m/s 752 mmHg 49%
    13:00 +40°C° 0 mm 4 m/s 751 mmHg 47%
    14:00 +41°C° 0 mm 4 m/s 751 mmHg 44%
    15:00 +40°C° 0.1 mm 4 m/s 751 mmHg 47%
    16:00 +40°C° 0.1 mm 4 m/s 750 mmHg 50%
    17:00 +38°C° 0.1 mm 4 m/s 750 mmHg 53%
    18:00 +37°C° 0.2 mm 4 m/s 750 mmHg 57%
    19:00 +36°C° 0.2 mm 4 m/s 751 mmHg 60%
    20:00 +35°C° 0.2 mm 4 m/s 751 mmHg 63%
    21:00 +35°C° 0 mm 4 m/s 752 mmHg 64%
    22:00 +35°C° 0 mm 4 m/s 752 mmHg 64%
    23:00 +34°C° 0 mm 4 m/s 753 mmHg 65%
    Voir plus